TimeCST,TemperatureF,Dew PointF,Humidity,Sea Level PressureIn,VisibilityMPH,Wind Direction,Wind SpeedMPH,Gust SpeedMPH,PrecipitationIn,Events,Conditions,WindDirDegrees,DateUTC
12:15 AM,31.1,18.3,59,30.33,10.0,NNE,16.1,-,N/A,,Clear,30,2013-01-21 06:15:00
12:35 AM,30.2,18.5,62,30.33,10.0,NNE,15.0,-,N/A,,Clear,20,2013-01-21 06:35:00
12:55 AM,29.7,18.9,64,30.33,10.0,North,15.0,-,N/A,,Clear,10,2013-01-21 06:55:00
1:15 AM,29.1,18.3,64,30.34,10.0,North,16.1,-,N/A,,Clear,10,2013-01-21 07:15:00
1:35 AM,28.4,18.3,66,30.34,10.0,North,16.1,-,N/A,,Clear,10,2013-01-21 07:35:00
1:55 AM,28.0,18.3,67,30.35,10.0,North,15.0,-,N/A,,Clear,10,2013-01-21 07:55:00
2:15 AM,27.5,17.8,67,30.36,10.0,North,12.7,-,N/A,,Clear,10,2013-01-21 08:15:00
2:35 AM,27.1,17.6,67,30.36,10.0,North,12.7,17.3,N/A,,Clear,10,2013-01-21 08:35:00
2:55 AM,27.0,17.4,67,30.36,10.0,North,13.8,17.3,N/A,,Clear,10,2013-01-21 08:55:00
3:35 AM,26.4,17.1,68,30.37,10.0,North,11.5,-,N/A,,Clear,10,2013-01-21 09:35:00
3:55 AM,25.7,17.6,71,30.36,10.0,North,11.5,-,N/A,,Clear,10,2013-01-21 09:55:00
4:15 AM,25.7,16.7,69,30.36,10.0,North,16.1,-,N/A,,Clear,10,2013-01-21 10:15:00
4:35 AM,25.5,16.3,68,30.36,10.0,North,15.0,-,N/A,,Clear,10,2013-01-21 10:35:00
4:55 AM,24.8,15.3,67,30.36,10.0,North,16.1,-,N/A,,Clear,10,2013-01-21 10:55:00
5:15 AM,24.4,14.9,67,30.36,10.0,NNE,15.0,19.6,N/A,,Clear,20,2013-01-21 11:15:00
5:35 AM,23.9,14.5,67,30.35,10.0,NNE,15.0,-,N/A,,Clear,20,2013-01-21 11:35:00
6:15 AM,23.2,14.5,70,30.35,10.0,North,13.8,-,N/A,,Clear,10,2013-01-21 12:15:00
6:35 AM,23.0,14.4,70,30.35,10.0,NNE,10.4,-,N/A,,Clear,20,2013-01-21 12:35:00
6:55 AM,23.0,14.0,68,30.36,10.0,NNE,12.7,-,N/A,,Clear,20,2013-01-21 12:55:00
7:15 AM,22.5,14.0,70,30.37,10.0,North,11.5,-,N/A,,Clear,10,2013-01-21 13:15:00
7:35 AM,22.1,14.0,71,30.38,10.0,North,12.7,-,N/A,,Clear,10,2013-01-21 13:35:00
7:55 AM,22.1,14.0,71,30.38,10.0,North,11.5,-,N/A,,Clear,360,2013-01-21 13:55:00
8:15 AM,22.1,14.2,72,30.39,10.0,North,10.4,-,N/A,,Clear,360,2013-01-21 14:15:00
8:35 AM,22.8,14.2,69,30.40,10.0,North,12.7,-,N/A,,Clear,10,2013-01-21 14:35:00
8:55 AM,23.9,14.4,67,30.40,10.0,North,13.8,-,N/A,,Clear,10,2013-01-21 14:55:00
9:15 AM,24.6,13.8,64,30.41,10.0,NNE,13.8,-,N/A,,Clear,20,2013-01-21 15:15:00
9:35 AM,25.7,14.0,61,30.42,10.0,North,15.0,-,N/A,,Clear,10,2013-01-21 15:35:00
9:55 AM,26.4,14.0,59,30.43,10.0,NNE,12.7,-,N/A,,Clear,20,2013-01-21 15:55:00
10:15 AM,26.8,14.9,61,30.43,10.0,NNE,9.2,-,N/A,,Clear,30,2013-01-21 16:15:00
10:35 AM,27.7,15.3,60,30.43,10.0,NNE,9.2,-,N/A,,Clear,20,2013-01-21 16:35:00
11:15 AM,29.3,16.2,58,30.43,10.0,North,6.9,-,N/A,,Clear,360,2013-01-21 17:15:00
11:35 AM,30.2,16.3,56,30.43,10.0,North,8.1,-,N/A,,Clear,10,2013-01-21 17:35:00
11:55 AM,31.6,17.2,55,30.42,10.0,North,3.5,-,N/A,,Clear,10,2013-01-21 17:55:00
12:15 PM,32.2,17.6,55,30.41,10.0,NNE,8.1,-,N/A,,Clear,30,2013-01-21 18:15:00
12:35 PM,32.9,17.4,53,30.39,10.0,North,6.9,-,N/A,,Clear,10,2013-01-21 18:35:00
12:55 PM,33.8,17.1,50,30.37,10.0,NNE,8.1,-,N/A,,Clear,30,2013-01-21 18:55:00
1:15 PM,35.2,17.6,49,30.35,10.0,North,4.6,-,N/A,,Clear,10,2013-01-21 19:15:00
1:35 PM,36.0,18.0,48,30.33,10.0,East,3.5,-,N/A,,Clear,100,2013-01-21 19:35:00
1:55 PM,36.7,17.4,46,30.32,10.0,East,3.5,-,N/A,,Clear,80,2013-01-21 19:55:00
2:15 PM,37.4,17.8,45,30.31,10.0,NNE,6.9,-,N/A,,Clear,30,2013-01-21 20:15:00
2:35 PM,38.7,18.1,44,30.30,10.0,Calm,Calm,-,N/A,,Clear,0,2013-01-21 20:35:00
2:55 PM,39.0,18.1,43,30.30,10.0,ENE,3.5,-,N/A,,Clear,70,2013-01-21 20:55:00
3:15 PM,39.6,18.5,43,30.30,10.0,ENE,3.5,-,N/A,,Clear,70,2013-01-21 21:15:00
3:35 PM,39.9,18.5,42,30.30,10.0,Calm,Calm,-,N/A,,Clear,0,2013-01-21 21:35:00
4:15 PM,39.6,18.3,42,30.28,10.0,NE,5.8,-,N/A,,Clear,50,2013-01-21 22:15:00
4:35 PM,40.3,18.3,41,30.28,10.0,Calm,Calm,-,N/A,,Clear,0,2013-01-21 22:35:00
5:15 PM,39.2,18.5,43,30.27,10.0,East,3.5,-,N/A,,Clear,100,2013-01-21 23:15:00
5:35 PM,39.2,18.7,44,30.26,10.0,ESE,4.6,-,N/A,,Clear,120,2013-01-21 23:35:00
5:55 PM,37.4,18.7,47,30.25,10.0,East,4.6,-,N/A,,Clear,100,2013-01-21 23:55:00
6:15 PM,36.0,19.0,50,30.25,10.0,ESE,3.5,-,N/A,,Clear,120,2013-01-22 00:15:00
6:35 PM,35.8,19.0,51,30.25,10.0,ESE,3.5,-,N/A,,Clear,120,2013-01-22 00:35:00
6:55 PM,35.1,19.2,53,30.26,10.0,Calm,Calm,-,N/A,,Clear,0,2013-01-22 00:55:00
7:15 PM,34.0,19.0,54,30.26,10.0,SE,3.5,-,N/A,,Clear,130,2013-01-22 01:15:00
7:35 PM,31.8,19.8,61,30.26,10.0,ESE,3.5,-,N/A,,Clear,110,2013-01-22 01:35:00
7:55 PM,31.3,20.1,63,30.26,10.0,Calm,Calm,-,N/A,,Clear,0,2013-01-22 01:55:00
8:15 PM,29.8,20.3,68,30.26,10.0,ESE,3.5,-,N/A,,Clear,110,2013-01-22 02:15:00
8:35 PM,30.0,19.9,66,30.28,10.0,East,3.5,-,N/A,,Clear,80,2013-01-22 02:35:00
8:55 PM,30.6,19.4,63,30.28,10.0,East,3.5,-,N/A,,Clear,90,2013-01-22 02:55:00
9:15 PM,30.0,19.9,66,30.28,10.0,East,3.5,-,N/A,,Clear,90,2013-01-22 03:15:00
9:35 PM,29.1,20.3,70,30.28,10.0,East,3.5,-,N/A,,Clear,90,2013-01-22 03:35:00
9:55 PM,28.0,20.8,74,30.28,10.0,Calm,Calm,-,N/A,,Clear,0,2013-01-22 03:55:00
10:15 PM,27.3,21.0,77,30.27,10.0,East,3.5,-,N/A,,Clear,100,2013-01-22 04:15:00
10:35 PM,27.7,21.0,76,30.28,10.0,Calm,Calm,-,N/A,,Clear,0,2013-01-22 04:35:00
10:55 PM,27.0,21.9,81,30.27,10.0,South,3.5,-,N/A,,Clear,180,2013-01-22 04:55:00
11:15 PM,26.4,21.7,82,30.27,10.0,Calm,Calm,-,N/A,,Clear,0,2013-01-22 05:15:00
11:35 PM,26.1,21.6,83,30.27,10.0,Calm,Calm,-,N/A,,Clear,0,2013-01-22 05:35:00
11:55 PM,27.9,21.2,76,30.24,10.0,South,5.8,-,N/A,,Clear,170,2013-01-22 05:55:00